• în România
  • Lista ţărilor
  • Pe 7 zile
  • Temperatura apei
  • Hartă satelitară
  • Meteo pe hartă
  • Widget-uri
  • user-avatar
    Intrare

    Meteo pe oră la Bukovel

    Astăzi, 24 Mai, Joi

    Timp Temperatura Precipitaţii Vânt Presiune Umiditate
    00:00 +15°C° 0 mm 2 m/s 687 mmHg 95%
    01:00 +15°C° 0 mm 2 m/s 687 mmHg 95%
    02:00 +13°C° 0 mm 0 m/s 687 mmHg 96%
    03:00 +15°C° 0 mm 1 m/s 687 mmHg 82%
    04:00 +15°C° 0 mm 1 m/s 687 mmHg 81%
    05:00 +14°C° 0 mm 1 m/s 687 mmHg 80%
    06:00 +15°C° 0 mm 2 m/s 687 mmHg 81%
    07:00 +15°C° 0 mm 2 m/s 687 mmHg 93%
    08:00 +16°C° 0 mm 2 m/s 688 mmHg 93%
    09:00 +17°C° 0 mm 3 m/s 688 mmHg 91%
    10:00 +17°C° 0 mm 3 m/s 689 mmHg 93%
    11:00 +18°C° 0 mm 3 m/s 689 mmHg 94%
    12:00 +18°C° 0 mm 4 m/s 689 mmHg 94%
    13:00 +19°C° 0 mm 3 m/s 688 mmHg 93%
    14:00 +19°C° 0 mm 3 m/s 688 mmHg 90%
    15:00 +19°C° 0 mm 3 m/s 688 mmHg 90%
    16:00 +19°C° 0 mm 3 m/s 687 mmHg 89%
    17:00 +18°C° 0 mm 4 m/s 687 mmHg 98%
    18:00 +17°C° 0 mm 4 m/s 686 mmHg 100%
    19:00 +17°C° 0 mm 3 m/s 686 mmHg 100%
    20:00 +16°C° 0,6 mm 3 m/s 686 mmHg 100%
    21:00 +14°C° 0,1 mm 3 m/s 686 mmHg 100%
    22:00 +14°C° 0 mm 1 m/s 686 mmHg 100%
    23:00 +14°C° 0 mm 1 m/s 686 mmHg 100%

    Mâine, 25 Mai, Vineri

    Timp Temperatura Precipitaţii Vânt Presiune Umiditate
    00:00 +14°C° 0 mm 1 m/s 686 mmHg 100%
    01:00 +14°C° 0 mm 1 m/s 686 mmHg 100%
    02:00 +13°C° 0 mm 1 m/s 686 mmHg 100%
    03:00 +12°C° 0 mm 0 m/s 686 mmHg 100%
    04:00 +12°C° 0 mm 0 m/s 685 mmHg 100%
    05:00 +13°C° 0 mm 1 m/s 685 mmHg 100%
    06:00 +13°C° 0 mm 1 m/s 686 mmHg 100%
    07:00 +13°C° 0 mm 1 m/s 686 mmHg 100%
    08:00 +14°C° 0 mm 1 m/s 686 mmHg 100%
    09:00 +15°C° 0 mm 1 m/s 687 mmHg 100%
    10:00 +16°C° 0 mm 1 m/s 687 mmHg 100%
    11:00 +17°C° 0 mm 2 m/s 687 mmHg 100%
    12:00 +17°C° 0,1 mm 4 m/s 687 mmHg 100%
    13:00 +18°C° 0 mm 3 m/s 688 mmHg 100%
    14:00 +17°C° 1,6 mm 3 m/s 687 mmHg 100%
    15:00 +18°C° 0,1 mm 3 m/s 688 mmHg 100%
    16:00 +18°C° 0,4 mm 4 m/s 687 mmHg 100%
    17:00 +18°C° 0,2 mm 4 m/s 687 mmHg 100%
    18:00 +17°C° 0,3 mm 4 m/s 687 mmHg 100%
    19:00 +17°C° 0 mm 3 m/s 688 mmHg 100%
    20:00 +16°C° 0 mm 3 m/s 687 mmHg 100%
    21:00 +14°C° 0 mm 4 m/s 687 mmHg 100%
    22:00 +14°C° 0 mm 3 m/s 688 mmHg 100%
    23:00 +14°C° 0 mm 3 m/s 688 mmHg 100%

    Poimâine, 26 Mai, Sâmbătă

    Timp Temperatura Precipitaţii Vânt Presiune Umiditate
    00:00 +15°C° 0 mm 2 m/s 688 mmHg 100%
    01:00 +14°C° 0 mm 2 m/s 688 mmHg 100%
    02:00 +14°C° 0 mm 2 m/s 688 mmHg 100%
    03:00 +14°C° 0 mm 2 m/s 688 mmHg 100%
    04:00 +13°C° 0 mm 2 m/s 688 mmHg 100%
    05:00 +13°C° 0 mm 2 m/s 688 mmHg 100%
    06:00 +13°C° 0 mm 2 m/s 688 mmHg 100%
    07:00 +14°C° 0 mm 2 m/s 689 mmHg 100%
    08:00 +15°C° 0 mm 2 m/s 689 mmHg 100%
    09:00 +16°C° 0 mm 2 m/s 690 mmHg 100%
    10:00 +17°C° 0 mm 3 m/s 690 mmHg 100%
    11:00 +17°C° 0 mm 3 m/s 690 mmHg 100%
    12:00 +18°C° 0 mm 4 m/s 691 mmHg 100%
    13:00 +18°C° 0 mm 4 m/s 691 mmHg 98%
    14:00 +19°C° 0 mm 4 m/s 690 mmHg 100%
    15:00 +18°C° 0,1 mm 4 m/s 690 mmHg 100%
    16:00 +18°C° 0 mm 4 m/s 690 mmHg 100%
    17:00 +18°C° 0 mm 4 m/s 690 mmHg 100%
    18:00 +17°C° 0 mm 4 m/s 690 mmHg 100%
    19:00 +15°C° 0 mm 4 m/s 690 mmHg 100%
    20:00 +16°C° 0 mm 3 m/s 690 mmHg 100%
    21:00 +14°C° 0 mm 3 m/s 690 mmHg 100%
    22:00 +14°C° 0 mm 2 m/s 689 mmHg 100%
    23:00 +14°C° 0 mm 2 m/s 689 mmHg 100%

    27 Mai, Duminică

    Timp Temperatura Precipitaţii Vânt Presiune Umiditate
    00:00 +14°C° 0 mm 2 m/s 689 mmHg 100%
    01:00 +12°C° 0 mm 3 m/s 689 mmHg 100%
    02:00 +13°C° 0 mm 2 m/s 689 mmHg 100%
    03:00 +13°C° 0 mm 2 m/s 689 mmHg 100%
    04:00 +13°C° 0 mm 1 m/s 689 mmHg 100%
    05:00 +13°C° 0 mm 1 m/s 689 mmHg 97%
    06:00 +14°C° 0 mm 1 m/s 689 mmHg 95%
    07:00 +15°C° 0 mm 1 m/s 689 mmHg 98%
    08:00 +16°C° 0 mm 1 m/s 689 mmHg 97%
    09:00 +18°C° 0 mm 1 m/s 690 mmHg 95%
    10:00 +19°C° 0 mm 1 m/s 690 mmHg 94%
    11:00 +19°C° 0 mm 2 m/s 690 mmHg 95%
    12:00 +19°C° 0 mm 4 m/s 690 mmHg 100%
    13:00 +19°C° 0 mm 4 m/s 689 mmHg 100%
    14:00 +19°C° 0 mm 4 m/s 689 mmHg 100%
    15:00 +19°C° 0 mm 4 m/s 689 mmHg 100%
    16:00 +18°C° 0 mm 4 m/s 689 mmHg 100%
    17:00 +18°C° 0,1 mm 4 m/s 689 mmHg 100%
    18:00 +18°C° 2,1 mm 1 m/s 689 mmHg 100%
    19:00 +17°C° 0,1 mm 2 m/s 689 mmHg 100%
    20:00 +17°C° 0 mm 2 m/s 689 mmHg 100%
    21:00 +16°C° 0 mm 2 m/s 689 mmHg 100%
    22:00 +16°C° 0 mm 2 m/s 689 mmHg 100%
    23:00 +15°C° 0 mm 2 m/s 689 mmHg 100%

    28 Mai, Luni

    Timp Temperatura Precipitaţii Vânt Presiune Umiditate
    00:00 +15°C° 0 mm 2 m/s 689 mmHg 100%
    01:00 +14°C° 0 mm 1 m/s 689 mmHg 100%
    02:00 +15°C° 0 mm 1 m/s 689 mmHg 100%

    29 Mai, Marţi

    Timp Temperatura Precipitaţii Vânt Presiune Umiditate
    Arată mai mult